User: anonymous   Login
Location: Amon Carter Post Office
(32.8281°N, 97.0484°W)
Time: 23:59:37
(UTC+00:00)
Language:

Nadezhda 4 Rocket - Orbit

View from above orbital plane
View from above orbital plane
View from above satellite
View from above satellite

Ground track
Ground track

The orbit data is extracted from the following two-line orbital elements,

1 23180U 94041B   22140.48533264  .00000103  00000-0  86952-4 0  9994
2 23180  82.9493  32.8288 0027920 220.2432 313.0570 13.78044886400560
Epoch (UTC): 20 May 2022 11:38:52
Eccentricity: 0.0027920
inclination: 82.9493°
perigee height: 950 km
apogee height: 991 km
right ascension of ascending node: 32.8288°
argument of perigee: 220.2432°
revolutions per day: 13.78044886
mean anomaly at epoch: 313.0570°
orbit number at epoch: 40056

The dashed part of the orbit path shows where the satellite is in the earth's shadow,  

DLR